小惑星2018 DF4

2018 DF4

English version
Home page
Updated on July 29, 2019

---------------------------------------------------------------------

・ プロフィール

発見日 2018年2月23日
発見光度 21.3等
発見者 Mt. Lemmon Survey

・ 軌道要素

Epoch 2019 Apr. 27.0 TT = JDT 2458600.5                 MPC
M   0.20377              (2000.0)            P               Q
n   0.00098549     Peri.  278.57222     -0.12536676     +0.78741105
a 100.0081470      Node   319.45785     +0.02035389     -0.60617557
e   0.9840043      Incl.   68.20543     -0.99190166     -0.11195989
P  1000            H   16.2           G   0.15

・ 光度変化

        H = 16.0  G = 0.15

---------------------------------------------------------------------

軌道要素はM.P.E.C. 2019-O100に掲載されたものです。
光度グラフはComet for Windowsで作成したものです。

---------------------------------------------------------------------

Copyright(C) Seiichi Yoshida (comet@aerith.net). All rights reserved.